| time (UTC) | temp F | wind direction | speed MPH | gust MPH | rain 1hr in | rain 24hr in | rain mn in | humidity % | barometer mb |
| 20260510230027 | 85 | 208 | 2.0 | 11.0 | 0.00 | 0.00 | 0.00 | 22 | 1005.7 |
| 20260510224524 | 84 | 112 | 7.0 | 16.0 | 0.00 | 0.00 | 0.00 | 22 | 1005.8 |
| 20260510223023 | 83 | 103 | 12.0 | 21.0 | 0.00 | 0.00 | 0.00 | 24 | 1005.8 |
| 20260510221522 | 83 | 98 | 15.0 | 22.0 | 0.00 | 0.00 | 0.00 | 26 | 1005.6 |
| 20260510220022 | 88 | 57 | 2.0 | 4.0 | 0.00 | 0.00 | 0.00 | 16 | 1005.3 |
| 20260510214525 | 87 | 79 | 3.0 | 4.0 | 0.00 | 0.00 | 0.00 | 19 | 1005.2 |
| 20260510213021 | 88 | 80 | 2.0 | 6.0 | 0.00 | 0.00 | 0.00 | 18 | 1005.2 |
| 20260510211529 | 88 | 58 | 4.0 | 9.0 | 0.00 | 0.00 | 0.00 | 15 | 1005.4 |
| 20260510210019 | 88 | 66 | 5.0 | 9.0 | 0.00 | 0.00 | 0.00 | 17 | 1005.5 |
| 20260510204530 | 88 | 110 | 3.0 | 10.0 | 0.00 | 0.00 | 0.00 | 15 | 1005.6 |
| 20260510203018 | 89 | 113 | 4.0 | 11.0 | 0.00 | 0.00 | 0.00 | 17 | 1005.6 |
| 20260510201517 | 92 | 74 | 3.0 | 11.0 | 0.00 | 0.00 | 0.00 | 17 | 1005.8 |
| 20260510200016 | 91 | 13 | 6.0 | 12.0 | 0.00 | 0.00 | 0.00 | 14 | 1005.9 |
| 20260510194516 | 90 | 337 | 4.0 | 14.0 | 0.00 | 0.00 | 0.00 | 13 | 1006.2 |
| 20260510193017 | 92 | 98 | 4.0 | 7.0 | 0.00 | 0.00 | 0.00 | 13 | 1006.4 |
| 20260510191512 | 89 | 314 | 3.0 | 14.0 | 0.00 | 0.00 | 0.00 | 14 | 1006.7 |
| 20260510190012 | 89 | 333 | 5.0 | 22.0 | 0.00 | 0.00 | 0.00 | 15 | 1006.7 |
| 20260510184510 | 89 | 141 | 2.0 | 13.0 | 0.00 | 0.00 | 0.00 | 15 | 1006.8 |
| 20260510183009 | 89 | 131 | 7.0 | 11.0 | 0.00 | 0.00 | 0.00 | 16 | 1006.9 |
| 20260510181508 | 88 | 39 | 2.0 | 10.0 | 0.00 | 0.00 | 0.00 | 15 | 1007.1 |
| 20260510180008 | 88 | 77 | 8.0 | 20.0 | 0.00 | 0.00 | 0.00 | 20 | 1007.1 |
| 20260510174507 | 87 | 86 | 7.0 | 20.0 | 0.00 | 0.00 | 0.00 | 20 | 1007.2 |
| 20260510173006 | 86 | 112 | 9.0 | 21.0 | 0.00 | 0.00 | 0.00 | 19 | 1007.2 |
| 20260510171506 | 86 | 96 | 12.0 | 19.0 | 0.00 | 0.00 | 0.00 | 19 | 1007.2 |
| 20260510170003 | 88 | 26 | 2.0 | 7.0 | 0.00 | 0.00 | 0.00 | 15 | 1007.3 |
| 20260510164503 | 88 | 271 | 0.0 | 3.0 | 0.00 | 0.00 | 0.00 | 15 | 1007.1 |
| 20260510163002 | 88 | 215 | 0.0 | 1.0 | 0.00 | 0.00 | 0.00 | 15 | 1007.1 |
| 20260510161559 | 87 | 221 | 0.0 | 3.0 | 0.00 | 0.00 | 0.00 | 17 | 1007.1 |
| 20260510160055 | 83 | 236 | 0.0 | 5.0 | 0.00 | 0.00 | 0.00 | 20 | 1007.1 |
| 20260510154559 | 82 | 236 | 0.0 | 3.0 | 0.00 | 0.00 | 0.00 | 22 | 1007.1 |
| 20260510153057 | 82 | 233 | 0.0 | 7.0 | 0.00 | 0.00 | 0.00 | 22 | 1007.1 |
| 20260510151550 | 80 | 235 | 1.0 | 4.0 | 0.00 | 0.00 | 0.00 | 21 | 1007.0 |
| 20260510150051 | 78 | 249 | 0.0 | 1.0 | 0.00 | 0.00 | 0.00 | 21 | 1007.1 |
| 20260510144556 | 77 | 313 | 0.0 | 2.0 | 0.00 | 0.00 | 0.00 | 24 | 1007.0 |
| 20260510143044 | 74 | 98 | 0.0 | 4.0 | 0.00 | 0.00 | 0.00 | 30 | 1006.8 |
| 20260510141540 | 73 | 79 | 4.0 | 6.0 | 0.00 | 0.00 | 0.00 | 31 | 1006.6 |
| 20260510140038 | 71 | 352 | 1.0 | 5.0 | 0.00 | 0.00 | 0.00 | 30 | 1006.4 |
| 20260510134537 | 65 | 333 | 1.0 | 5.0 | 0.00 | 0.00 | 0.00 | 41 | 1006.3 |
| 20260510133035 | 62 | 311 | 0.0 | 2.0 | 0.00 | 0.00 | 0.00 | 41 | 1006.1 |
| 20260510131533 | 59 | 117 | 0.0 | 1.0 | 0.00 | 0.00 | 0.00 | 46 | 1006.0 |
| 20260510130033 | 60 | 131 | 0.0 | 5.0 | 0.00 | 0.00 | 0.00 | 44 | 1005.8 |
| 20260510124530 | 61 | 291 | 0.0 | 1.0 | 0.00 | 0.00 | 0.00 | 38 | 1005.5 |
| 20260510123030 | 57 | 124 | 1.0 | 7.0 | 0.00 | 0.00 | 0.00 | 52 | 1005.5 |
| 20260510121526 | 60 | 238 | 0.0 | 1.0 | 0.00 | 0.00 | 0.00 | 36 | 1005.1 |
| 20260510120024 | 59 | 237 | 0.0 | 1.0 | 0.00 | 0.00 | 0.00 | 40 | 1004.9 |
| 20260510114524 | 61 | 238 | 0.0 | 1.0 | 0.00 | 0.00 | 0.00 | 35 | 1005.0 |
| 20260510113028 | 61 | 236 | 0.0 | 1.0 | 0.00 | 0.00 | 0.00 | 31 | 1004.7 |
| 20260510111518 | 61 | 236 | 0.0 | 2.0 | 0.00 | 0.00 | 0.00 | 32 | 1004.8 |
| 20260510110019 | 63 | 236 | 0.0 | 0.0 | 0.00 | 0.00 | 0.00 | 30 | 1004.7 |
| 20260510104511 | 64 | 236 | 0.0 | 2.0 | 0.00 | 0.00 | 0.00 | 27 | 1004.6 |
| 20260510103008 | 64 | 236 | 0.0 | 1.0 | 0.00 | 0.00 | 0.00 | 29 | 1004.4 |
| 20260510101505 | 66 | 236 | 1.0 | 3.0 | 0.00 | 0.00 | 0.00 | 27 | 1004.2 |
| 20260510100004 | 68 | 235 | 0.0 | 1.0 | 0.00 | 0.00 | 0.00 | 24 | 1004.2 |
| 20260510094502 | 68 | 235 | 0.0 | 2.0 | 0.00 | 0.00 | 0.00 | 24 | 1004.3 |
| 20260510093001 | 69 | 243 | 3.0 | 5.0 | 0.00 | 0.00 | 0.00 | 23 | 1004.2 |
| 20260510091559 | 72 | 78 | 3.0 | 8.0 | 0.00 | 0.00 | 0.00 | 20 | 1004.0 |
| 20260510090059 | 73 | 71 | 4.0 | 11.0 | 0.00 | 0.00 | 0.00 | 18 | 1003.9 |
| 20260510084610 | 74 | 83 | 0.0 | 9.0 | 0.00 | 0.00 | 0.00 | 17 | 1004.0 |
| 20260510083057 | 75 | 64 | 9.0 | 13.0 | 0.00 | 0.00 | 0.00 | 17 | 1003.8 |
| 20260510081557 | 73 | 90 | 1.0 | 4.0 | 0.00 | 0.00 | 0.00 | 19 | 1004.0 |
| 20260510074556 | 70 | 77 | 0.0 | 3.0 | 0.00 | 0.00 | 0.00 | 21 | 1003.9 |
| 20260510073057 | 67 | 74 | 1.0 | 7.0 | 0.00 | 0.00 | 0.00 | 24 | 1004.0 |
| 20260510071550 | 69 | 236 | 0.0 | 3.0 | 0.00 | 0.00 | 0.00 | 21 | 1003.8 |
| 20260510070052 | 69 | 238 | 0.0 | 1.0 | 0.00 | 0.00 | 0.00 | 21 | 1003.9 |
| 20260510064547 | 71 | 236 | 0.0 | 1.0 | 0.00 | 0.00 | 0.00 | 20 | 1003.9 |
| 20260510063044 | 71 | 240 | 0.0 | 5.0 | 0.00 | 0.00 | 0.00 | 18 | 1004.0 |
| 20260510061541 | 75 | 131 | 0.0 | 5.0 | 0.00 | 0.00 | 0.00 | 21 | 1004.0 |
| 20260510060044 | 77 | 302 | 4.0 | 9.0 | 0.00 | 0.00 | 0.00 | 14 | 1003.7 |
| 20260510054537 | 78 | 308 | 2.0 | 9.0 | 0.00 | 0.00 | 0.00 | 14 | 1003.6 |
| 20260510053037 | 79 | 293 | 3.0 | 7.0 | 0.00 | 0.00 | 0.00 | 14 | 1003.5 |
| 20260510051536 | 79 | 285 | 2.0 | 7.0 | 0.00 | 0.00 | 0.00 | 13 | 1003.6 |
| 20260510050036 | 78 | 304 | 2.0 | 7.0 | 0.00 | 0.00 | 0.00 | 13 | 1003.6 |
| 20260510044534 | 78 | 307 | 4.0 | 8.0 | 0.00 | 0.00 | 0.00 | 14 | 1003.6 |
| 20260510043034 | 78 | 304 | 2.0 | 8.0 | 0.00 | 0.00 | 0.00 | 13 | 1003.5 |
| 20260510041533 | 79 | 265 | 4.0 | 9.0 | 0.00 | 0.00 | 0.00 | 13 | 1003.5 |
| 20260510040032 | 80 | 293 | 5.0 | 9.0 | 0.00 | 0.00 | 0.00 | 13 | 1003.4 |
| 20260510034532 | 79 | 282 | 2.0 | 7.0 | 0.00 | 0.00 | 0.00 | 13 | 1003.3 |
| 20260510033042 | 79 | 269 | 2.0 | 6.0 | 0.00 | 0.00 | 0.00 | 13 | 1003.2 |
| 20260510031532 | 81 | 262 | 3.0 | 7.0 | 0.00 | 0.00 | 0.00 | 12 | 1003.0 |
| 20260510030030 | 82 | 285 | 3.0 | 7.0 | 0.00 | 0.00 | 0.00 | 12 | 1002.8 |
| 20260510024530 | 83 | 259 | 3.0 | 6.0 | 0.00 | 0.00 | 0.00 | 11 | 1002.5 |
| 20260510023029 | 85 | 286 | 3.0 | 6.0 | 0.00 | 0.00 | 0.00 | 11 | 1002.2 |
| 20260510021610 | 86 | 274 | 3.0 | 6.0 | 0.00 | 0.00 | 0.00 | 10 | 1002.0 |
| 20260510020028 | 87 | 278 | 4.0 | 8.0 | 0.00 | 0.00 | 0.00 | 10 | 1001.8 |
| 20260510014542 | 89 | 246 | 1.0 | 3.0 | 0.00 | 0.00 | 0.00 | 11 | 1001.6 |
| 20260510013028 | 91 | 274 | 1.0 | 4.0 | 0.00 | 0.00 | 0.00 | 10 | 1001.4 |
| 20260510011526 | 92 | 236 | 4.0 | 9.0 | 0.00 | 0.00 | 0.00 | 10 | 1001.4 |
| 20260510010034 | 94 | 255 | 0.0 | 3.0 | 0.00 | 0.00 | 0.00 | 10 | 1001.4 |
| 20260510004523 | 93 | 264 | 4.0 | 11.0 | 0.00 | 0.00 | 0.00 | 9 | 1001.5 |
| 20260510003025 | 94 | 267 | 0.0 | 7.0 | 0.00 | 0.00 | 0.00 | 9 | 1001.5 |
| 20260510001522 | 94 | 285 | 2.0 | 9.0 | 0.00 | 0.00 | 0.00 | 8 | 1001.4 |
| 20260510000021 | 94 | 139 | 2.0 | 7.0 | 0.00 | 0.00 | 0.00 | 8 | 1001.6 |
| 20260509234521 | 94 | 243 | 4.0 | 9.0 | 0.00 | 0.00 | 0.00 | 8 | 1001.8 |
| 20260509233016 | 94 | 297 | 5.0 | 9.0 | 0.00 | 0.00 | 0.00 | 9 | 1002.0 |
| 20260509231515 | 95 | 312 | 4.0 | 12.0 | 0.00 | 0.00 | 0.00 | 9 | 1002.1 |